Hallock, MN

3:56 PM CDT on May 23, 2018 (GMT -0500)
Hallock Municipal

Weather History for KHCO - March, 2013

Change the Weather History Date:

Tuesday, March 26, 2013

  Actual Average Record
Temperature  
Mean Temperature 9 °F -  
Max Temperature 23 °F 36 °F 60 °F (1946)
Min Temperature -5 °F 20 °F -15 °F (1964)
Degree Days  
Heating Degree Days 56    
Moisture  
Dew Point 5 °F    
Average Humidity 87    
Maximum Humidity 93    
Minimum Humidity 74    
Precipitation  
Precipitation 0.00 in - - ()
Sea Level Pressure  
Sea Level Pressure 30.32 in    
Wind  
Wind Speed 0 mph (West)    
Max Wind Speed 4 mph    
Max Gust Speed -    
Visibility 8 miles    
Events Fog , Snow    
Averages and records for this station are not official NWS values.
T = Trace of Precipitation, MM = Missing Value Source: NWS Daily Summary

Daily Weather History Graph

Daily Weather History Graph

Search for Another Location

Airport or City:

Astronomy

Mar. 26, 2013 Rise Set
Actual Time 7:17 AM CDT 7:50 PM CDT
Civil Twilight 6:45 AM CDT 8:21 PM CDT
Nautical Twilight 6:08 AM CDT 8:59 PM CDT
Astronomical Twilight 5:29 AM CDT 9:38 PM CDT
Moon 7:29 PM CDT (3/26) 6:36 AM CDT (3/26)
Length of Visible Light 13h 35m
Length of Day
12h 32m
Waxing Gibbous, 99% of the Moon is Illuminated
Mar 26
Waxing Gibbous
Mar 27
Full
Apr 2
Last Quarter
Apr 10
New
Apr 18
First Quarter

Hourly Weather History & Observations

Time (CDT) Temp. Windchill Dew Point Humidity Pressure Visibility Wind Dir Wind Speed Gust Speed Precip Events Conditions
12:14 AM 6.8 °F - 5.0 °F 92% 30.33 in 10.0 mi Calm Calm - N/A   Clear
12:34 AM 3.2 °F - 1.4 °F 92% 30.33 in 10.0 mi Calm Calm - N/A   Clear
12:54 AM 3.2 °F -4.2 °F 1.4 °F 92% 30.33 in 10.0 mi WNW 3.5 mph - N/A   Clear
1:14 AM 3.2 °F - -0.4 °F 85% 30.33 in 10.0 mi Calm Calm - N/A   Clear
1:34 AM 3.2 °F - -0.4 °F 85% 30.33 in 10.0 mi Calm Calm - N/A   Clear
1:54 AM 3.2 °F - 1.4 °F 92% 30.33 in 10.0 mi Calm Calm - N/A   Clear
2:14 AM 3.2 °F -4.2 °F 1.4 °F 92% 30.33 in 10.0 mi NW 3.5 mph - N/A   Clear
2:34 AM 3.2 °F -4.2 °F 1.4 °F 92% 30.33 in 7.0 mi NW 3.5 mph - N/A   Clear
2:54 AM 3.2 °F -4.2 °F 1.4 °F 92% 30.33 in 10.0 mi WNW 3.5 mph - N/A   Clear
3:14 AM 3.2 °F - -0.4 °F 85% 30.32 in 10.0 mi Calm Calm - N/A   Clear
3:33 AM 3.2 °F - 1.4 °F 92% 30.32 in 7.0 mi Calm Calm - N/A   Clear
3:54 AM 3.2 °F - 1.4 °F 92% 30.32 in 5.0 mi Calm Calm - N/A   Clear
4:14 AM 3.2 °F - 1.4 °F 92% 30.32 in 10.0 mi Calm Calm - N/A   Clear
4:33 AM 3.2 °F - 1.4 °F 92% 30.32 in 10.0 mi Calm Calm - N/A   Clear
4:54 AM 3.2 °F - 1.4 °F 92% 30.31 in 10.0 mi Calm Calm - N/A   Clear
5:14 AM 1.4 °F - -2.2 °F 85% 30.32 in 10.0 mi Calm Calm - N/A   Clear
5:33 AM -0.4 °F - -5.8 °F 78% 30.32 in 10.0 mi Calm Calm - N/A   Clear
5:54 AM -2.2 °F - -5.8 °F 85% 30.32 in 10.0 mi Calm Calm - N/A   Clear
6:14 AM -0.4 °F - -4.0 °F 85% 30.32 in 10.0 mi Calm Calm - N/A   Clear
6:34 AM -0.4 °F - -4.0 °F 85% 30.32 in 10.0 mi Calm Calm - N/A   Clear
6:54 AM -2.2 °F - -7.6 °F 78% 30.32 in 1.0 mi Calm Calm - N/A   Mist
7:14 AM -5.8 °F - -9.4 °F 84% 30.32 in 10.0 mi Calm Calm - N/A   Clear
7:34 AM -4.0 °F - -7.6 °F 85% 30.32 in 7.0 mi Calm Calm - N/A   Clear
7:54 AM -2.2 °F - -7.6 °F 78% 30.33 in 0.5 mi Calm Calm - N/A Fog Light Freezing Fog
8:14 AM -4.0 °F - -7.6 °F 85% 30.33 in 0.5 mi Calm Calm - N/A Fog Light Freezing Fog
8:34 AM -2.2 °F - -7.6 °F 78% 30.33 in 1.2 mi Calm Calm - N/A   Mostly Cloudy
8:54 AM -2.2 °F - -5.8 °F 85% 30.33 in 2.0 mi Calm Calm - N/A   Clear
9:14 AM -2.2 °F - -5.8 °F 85% 30.33 in 10.0 mi Calm Calm - N/A   Clear
9:33 AM -2.2 °F - -5.8 °F 85% 30.33 in 5.0 mi Calm Calm - N/A   Clear
9:54 AM 1.4 °F - -2.2 °F 85% 30.33 in 10.0 mi Calm Calm - N/A Snow Light Snow
10:14 AM 1.4 °F - -2.2 °F 85% 30.33 in 10.0 mi Calm Calm - N/A   Clear
10:33 AM 3.2 °F - -0.4 °F 85% 30.33 in 10.0 mi Calm Calm - N/A   Clear
10:54 AM 6.8 °F - 3.2 °F 85% 30.33 in 10.0 mi Calm Calm - N/A   Clear
11:14 AM 8.6 °F - 5.0 °F 85% 30.33 in 10.0 mi Calm Calm - N/A   Clear
11:33 AM 8.6 °F - 6.8 °F 92% 30.33 in 10.0 mi Calm Calm - N/A   Clear
11:54 AM 10.4 °F - 8.6 °F 92% 30.33 in 10.0 mi Calm Calm - N/A   Clear
12:14 PM 12.2 °F - 10.4 °F 92% 30.34 in 10.0 mi Calm Calm - N/A   Clear
12:33 PM 12.2 °F 6.1 °F 10.4 °F 92% 30.33 in 10.0 mi WSW 3.5 mph - N/A   Clear
12:54 PM 14.0 °F 8.2 °F 10.4 °F 86% 30.34 in 10.0 mi WSW 3.5 mph - N/A   Clear
1:14 PM 15.8 °F - 12.2 °F 86% 30.33 in 10.0 mi Calm Calm - N/A   Clear
1:33 PM 15.8 °F - 12.2 °F 86% 30.33 in 10.0 mi Calm Calm - N/A   Clear
1:54 PM 17.6 °F - 14.0 °F 86% 30.33 in 10.0 mi Calm Calm - N/A   Clear
2:14 PM 17.6 °F - 15.8 °F 93% 30.33 in 10.0 mi Calm Calm - N/A   Clear
2:34 PM 19.4 °F - 15.8 °F 86% 30.32 in 10.0 mi Calm Calm - N/A   Clear
2:54 PM 19.4 °F - 14.0 °F 80% 30.32 in 10.0 mi Calm Calm - N/A   Clear
3:14 PM 19.4 °F - 15.8 °F 86% 30.32 in 10.0 mi Calm Calm - N/A   Clear
3:34 PM 21.2 °F - 15.8 °F 80% 30.32 in 10.0 mi Calm Calm - N/A   Clear
3:54 PM 21.2 °F 16.4 °F 15.8 °F 80% 30.32 in 10.0 mi WSW 3.5 mph - N/A   Clear
4:14 PM 21.2 °F 16.4 °F 15.8 °F 80% 30.31 in 10.0 mi WSW 3.5 mph - N/A   Clear
4:34 PM 21.2 °F - 17.6 °F 86% 30.31 in 10.0 mi Calm Calm - N/A   Clear
4:54 PM 23.0 °F - 15.8 °F 74% 30.31 in 10.0 mi Calm Calm - N/A   Clear
5:14 PM 23.0 °F - 15.8 °F 74% 30.31 in 10.0 mi Calm Calm - N/A   Clear
5:34 PM 21.2 °F - 17.6 °F 86% 30.31 in 10.0 mi Calm Calm - N/A   Clear
5:54 PM 23.0 °F - 17.6 °F 80% 30.31 in 10.0 mi Calm Calm - N/A   Clear
6:14 PM 21.2 °F - 17.6 °F 86% 30.30 in 10.0 mi Calm Calm - N/A   Clear
6:34 PM 19.4 °F - 15.8 °F 86% 30.30 in 10.0 mi Calm Calm - N/A   Clear
6:54 PM 19.4 °F - 15.8 °F 86% 30.30 in 10.0 mi Calm Calm - N/A   Clear
7:14 PM 19.4 °F - 15.8 °F 86% 30.30 in 10.0 mi Calm Calm - N/A   Clear
7:32 PM 17.6 °F - 15.8 °F 93% 30.30 in 10.0 mi Calm Calm - N/A   Clear
7:54 PM 17.6 °F - 15.8 °F 93% 30.29 in 10.0 mi Calm Calm - N/A   Clear
8:14 PM 14.0 °F - 12.2 °F 93% 30.29 in 10.0 mi Calm Calm - N/A   Clear
8:34 PM 14.0 °F - 12.2 °F 93% 30.30 in 7.0 mi Calm Calm - N/A   Clear
8:53 PM 10.4 °F - 8.6 °F 92% 30.30 in 0.5 mi Calm Calm - N/A Fog Light Freezing Fog
9:14 PM 10.4 °F - 8.6 °F 92% 30.30 in 0.2 mi Calm Calm - N/A Fog Light Freezing Fog
9:34 PM 10.4 °F - 6.8 °F 85% 30.30 in 0.2 mi Calm Calm - N/A Fog Light Freezing Fog
9:54 PM 8.6 °F - 5.0 °F 85% 30.31 in 0.2 mi Calm Calm - N/A Fog Light Freezing Fog
10:14 PM 8.6 °F - 6.8 °F 92% 30.31 in 0.2 mi Calm Calm - N/A Fog Light Freezing Fog
10:34 PM 10.4 °F - 8.6 °F 92% 30.31 in 0.2 mi Calm Calm - N/A Fog Light Freezing Fog
10:53 PM 5.0 °F - 3.2 °F 92% 30.32 in 0.2 mi Calm Calm - N/A Fog Light Freezing Fog
11:14 PM 6.8 °F - 5.0 °F 92% 30.32 in 0.2 mi Calm Calm - N/A Fog Light Freezing Fog
11:34 PM 5.0 °F - 1.4 °F 85% 30.32 in 0.2 mi Calm Calm - N/A Fog Light Freezing Fog
11:54 PM 3.2 °F - 1.4 °F 92% 30.31 in 0.2 mi Calm Calm - N/A Fog Light Freezing Fog